Location: The Rolnick Observatory
(41.1711°N, 73.3275°W)
Time: 14:50:50
(UTC-05:00)

Envisat - Visible Passes

Search period start: 17 February 2019 00:00
Search period end: 27 February 2019 00:00
Orbit: 764 x 766 km, 98.2° (Epoch: 17 February)

Date Brightness Start Highest point End Pass type
(mag) Time Alt. Az. Time Alt. Az. Time Alt. Az.
17 Feb 6.2 06:11:38 10° NE 06:14:36 15° E 06:17:33 10° SE visible
17 Feb 4.1 19:03:34 10° S 19:08:26 47° W 19:13:20 10° NNW visible
18 Feb 2.9 18:26:35 10° SSE 18:31:39 79° ENE 18:36:44 10° N visible
18 Feb 6.1 20:09:29 10° WSW 20:11:14 12° W 20:13:00 10° WNW visible
19 Feb 5.1 19:29:52 10° SSW 19:34:06 27° W 19:38:23 10° NW visible
20 Feb 6.5 06:01:23 10° ENE 06:03:15 12° E 06:05:07 10° ESE visible
20 Feb 3.6 18:52:11 10° S 18:57:11 60° W 19:02:13 10° NNW visible
21 Feb 3.0 18:15:28 10° SSE 18:20:28 62° ENE 18:25:29 10° N visible
21 Feb 5.9 19:57:00 10° SW 19:59:54 15° W 20:02:48 10° NW visible
22 Feb 4.7 19:18:16 10° SSW 19:22:49 33° W 19:27:25 10° NNW visible
23 Feb 3.2 18:40:54 10° S 18:45:58 76° WSW 18:51:04 10° NNW visible
24 Feb 3.2 18:04:26 10° SE 18:09:18 49° ENE 18:14:11 10° N visible
24 Feb 5.6 19:44:58 10° SW 19:48:34 19° W 19:52:11 10° NW visible
25 Feb 4.3 19:06:46 10° S 19:11:34 42° W 19:16:23 10° NNW visible
26 Feb 3.0 18:29:40 10° SSE 18:34:45 86° ENE 18:39:52 10° NNW visible
26 Feb 6.3 20:13:32 10° W 20:14:24 10° W 20:15:17 10° WNW visible
